Location: Beutels
(47.8767°N, 9.8584°E)
Time: 10:39:58
(UTC+00:00)

Cosmos 1814 Rocket - Pass Details

Date: 19 May 2025
Orbit: 740 x 783 km, 74.1° (Epoch: 23 June)

Event Time Altitude Azimuth Distance (km) Brightness Sun altitude
Rises 19:44:40 0° 196° (SSW) 3,166 6.9 -7.2°
Reaches altitude 10° 19:47:00 10° 195° (SSW) 2,250 6.2 -7.5°
Maximum altitude 19:52:05 78° 110° (ESE) 770 3.9 -8.1°
Drops below altitude 10° 19:57:15 10° 25° (NNE) 2,288 6.7 -8.8°
Sets 19:59:39 0° 24° (NNE) 3,224 7.5 -9.1°
